GW2922 Weather Reports


time (UTC)temp
F
wind
direction
speed
knots
gust
knots
rain 1hr
in
rain 24hr
in
rain mn
in
humidity
%
barometer
mb
20260905195833 68 117 0.9 1.7 0.00 0.00 0.00 61 1019.9
20260905195328 69 102 0.0 0.9 0.00 0.00 0.00 60 1019.9
20260905194825 67 66 0.0 3.5 0.00 0.00 0.00 64 1019.9
20260905194319 68 50 1.7 2.6 0.00 0.00 0.00 63 1019.9
20260905193818 66 103 0.0 3.5 0.00 0.00 0.00 66 1019.9
20260905193313 67 82 1.7 3.5 0.00 0.00 0.00 65 1019.9
20260905192809 68 42 1.7 2.6 0.00 0.00 0.00 63 1019.9
20260905192306 69 93 0.9 1.7 0.00 0.00 0.00 63 1020.2
20260905191804 67 116 0.0 1.7 0.00 0.00 0.00 65 1019.9
20260905191302 66 118 1.7 7.0 0.00 0.00 0.00 68 1019.9
20260905190801 66 124 2.6 7.8 0.00 0.00 0.00 68 1020.2
20260905190255 66 135 0.9 7.8 0.00 0.00 0.00 69 1020.2
20260905185754 66 193 1.7 6.1 0.00 0.00 0.00 70 1020.2
20260905185249 66 176 4.3 7.0 0.00 0.00 0.00 69 1020.2
20260905184748 66 107 0.0 5.2 0.00 0.00 0.00 70 1019.9
20260905184242 65 133 2.6 7.0 0.00 0.00 0.00 71 1020.2
20260905183741 65 233 1.7 5.2 0.00 0.00 0.00 71 1020.2
20260905183236 66 184 4.3 6.1 0.00 0.00 0.00 70 1020.2
20260905182731 66 175 1.7 5.2 0.00 0.00 0.00 69 1020.2
20260905182230 66 112 1.7 1.7 0.00 0.00 0.00 69 1020.2
20260905181726 65 166 6.1 7.0 0.00 0.00 0.00 69 1020.2
20260905181224 66 88 1.7 5.2 0.00 0.00 0.00 68 1020.2
20260905180719 66 102 0.9 2.6 0.00 0.00 0.00 68 1020.2
20260905180214 66 177 6.1 7.0 0.00 0.00 0.00 66 1020.2
20260905175709 65 114 1.7 3.5 0.00 0.00 0.00 68 1020.6
20260905175204 65 149 2.6 3.5 0.00 0.00 0.00 68 1020.6
20260905174659 65 117 1.7 5.2 0.00 0.00 0.00 69 1020.6
20260905174155 65 86 1.7 5.2 0.00 0.00 0.00 69 1020.6
20260905173650 65 146 0.9 3.5 0.00 0.00 0.00 70 1020.2
20260905173146 65 183 1.7 3.5 0.00 0.00 0.00 68 1020.6
20260905172645 66 108 0.0 2.6 0.00 0.00 0.00 68 1020.2
20260905172139 65 95 0.0 2.6 0.00 0.00 0.00 68 1020.2
20260905171635 65 149 0.9 0.9 0.00 0.00 0.00 69 1020.2
20260905171131 64 140 0.0 0.9 0.00 0.00 0.00 71 1020.6
20260905170627 64 65 0.9 0.9 0.00 0.00 0.00 71 1020.2
20260905170122 63 218 0.9 1.7 0.00 0.00 0.00 71 1020.2
20260905165617 63 178 1.7 3.5 0.00 0.00 0.00 71 1020.2
20260905165112 63 180 1.7 1.7 0.00 0.00 0.00 72 1020.2
20260905164602 62 146 1.7 2.6 0.00 0.00 0.00 73 1020.2
20260905164101 61 157 0.0 0.9 0.00 0.00 0.00 73 1019.9
20260905163558 61 171 0.0 0.9 0.00 0.00 0.00 74 1019.9
20260905163054 60 197 2.6 3.5 0.00 0.00 0.00 76 1020.2
20260905162550 59 36 0.9 2.6 0.00 0.00 0.00 76 1019.9
20260905162044 60 303 0.9 1.7 0.00 0.00 0.00 76 1019.6
20260905161543 59 234 0.9 1.7 0.00 0.00 0.00 76 1019.9
20260905161041 59 80 0.9 0.9 0.00 0.00 0.00 77 1019.9
20260905160540 59 81 0.9 0.9 0.00 0.00 0.00 77 1019.9
20260905160035 59 124 0.0 0.0 0.00 0.00 0.00 77 1019.9
20260905155534 59 78 0.9 1.7 0.00 0.00 0.00 77 1019.9
20260905155033 58 103 0.0 0.9 0.00 0.00 0.00 77 1019.9
20260905154528 58 104 0.0 1.7 0.00 0.00 0.00 77 1019.9
20260905154024 58 86 0.0 0.9 0.00 0.00 0.00 77 1019.9
20260905153520 58 99 0.0 1.7 0.00 0.00 0.00 77 1019.9
20260905153019 58 87 0.0 1.7 0.00 0.00 0.00 77 1019.9
20260905152514 57 296 0.9 0.9 0.00 0.00 0.00 77 1020.2
20260905152009 57 97 0.0 0.9 0.00 0.00 0.00 77 1019.9
20260905151504 57 70 0.9 0.9 0.00 0.00 0.00 77 1019.9
20260905150959 57 99 0.0 0.9 0.00 0.00 0.00 77 1019.9
20260905150454 57 112 0.0 1.7 0.00 0.00 0.00 77 1019.9
20260905145951 56 100 0.0 1.7 0.00 0.00 0.00 77 1019.9
20260905145445 56 103 0.0 0.0 0.00 0.00 0.00 78 1019.9
20260905144945 55 104 0.0 1.7 0.00 0.00 0.00 78 1019.9
20260905144441 55 101 0.0 0.0 0.00 0.00 0.00 81 1019.9
20260905143939 55 206 0.0 1.7 0.00 0.00 0.00 81 1019.9
20260905143438 55 112 0.0 0.9 0.00 0.00 0.00 83 1019.9
20260905142933 55 124 0.0 0.0 0.00 0.00 0.00 84 1019.9
20260905142432 54 112 0.0 0.9 0.00 0.00 0.00 86 1019.6
20260905141928 53 114 0.0 0.0 0.00 0.00 0.00 87 1019.6
20260905141422 53 99 0.0 0.0 0.00 0.00 0.00 88 1019.6
20260905140919 53 101 0.0 0.9 0.00 0.00 0.00 88 1019.6
20260905140414 53 109 0.0 0.0 0.00 0.00 0.00 89 1019.6
20260905135912 53 102 0.0 0.0 0.00 0.00 0.00 89 1019.6
20260905135408 52 100 0.0 0.0 0.00 0.00 0.00 89 1019.6
20260905134904 52 105 0.0 0.0 0.00 0.00 0.00 89 1019.6
20260905134403 52 114 0.0 0.9 0.00 0.00 0.00 90 1019.6
20260905133857 52 172 0.9 0.9 0.00 0.00 0.00 90 1019.6
20260905133352 51 96 0.0 0.0 0.00 0.00 0.00 90 1019.6
20260905132851 51 103 0.0 0.0 0.00 0.00 0.00 91 1019.6
20260905132346 51 103 0.0 0.0 0.00 0.00 0.00 91 1019.6
20260905131841 51 89 0.0 0.0 0.00 0.00 0.00 91 1019.6
20260905131336 51 89 0.0 0.0 0.00 0.00 0.00 91 1019.6
20260905130832 51 103 0.0 0.0 0.00 0.00 0.00 91 1019.6
20260905130330 51 106 0.0 0.0 0.00 0.00 0.00 91 1019.6
20260905125826 51 106 0.0 0.0 0.00 0.00 0.00 91 1019.6
20260905125321 51 106 0.0 0.0 0.00 0.00 0.00 91 1019.6
20260905124817 51 77 0.0 0.9 0.00 0.00 0.00 91 1019.6
20260905124313 51 105 0.0 0.0 0.00 0.00 0.00 91 1019.6
20260905123808 51 88 0.0 0.9 0.00 0.00 0.00 91 1019.6
20260905123305 51 104 0.0 0.0 0.00 0.00 0.00 91 1019.6
20260905122804 51 104 0.0 0.0 0.00 0.00 0.00 91 1019.6
20260905122306 51 102 0.0 0.0 0.00 0.00 0.00 91 1019.6
20260905121759 51 104 0.0 0.0 0.00 0.00 0.00 91 1019.6
20260905121256 51 104 0.0 0.0 0.00 0.00 0.00 91 1019.6
20260905120754 51 103 0.0 0.0 0.00 0.00 0.00 91 1019.6
20260905120253 51 104 0.0 0.0 0.00 0.00 0.00 91 1019.2
20260905115748 51 104 0.0 0.0 0.00 0.00 0.00 91 1019.6
20260905115243 51 118 0.0 0.0 0.00 0.00 0.00 91 1019.2
20260905114742 51 127 0.0 0.0 0.00 0.00 0.00 91 1019.2
20260905114241 51 124 0.0 0.0 0.00 0.00 0.00 91 1019.2
20260905113740 51 132 0.0 0.0 0.00 0.00 0.00 91 1019.2
20260905113236 51 113 0.0 0.0 0.00 0.00 0.00 90 1019.2
20260905112731 51 113 0.0 0.0 0.00 0.00 0.00 90 1019.2
20260905112226 51 113 0.0 0.0 0.00 0.00 0.00 90 1019.6
20260905111721 51 114 0.0 0.0 0.00 0.00 0.00 90 1019.2
20260905111215 52 113 0.0 0.0 0.00 0.00 0.00 90 1019.2
20260905110714 52 113 0.0 0.0 0.00 0.00 0.00 90 1019.2
20260905110209 52 99 0.0 0.9 0.00 0.00 0.00 90 1019.2
20260905105705 52 29 0.0 0.9 0.00 0.00 0.00 90 1019.2
20260905105203 52 119 0.0 0.0 0.00 0.00 0.00 90 1019.2
20260905104658 52 93 0.0 0.0 0.00 0.00 0.00 90 1019.2
20260905104154 52 112 0.0 0.0 0.00 0.00 0.00 90 1019.2
20260905103649 52 124 0.0 0.0 0.00 0.00 0.00 90 1019.2
20260905103145 52 128 0.0 0.0 0.00 0.00 0.00 90 1019.2
20260905102641 53 108 0.0 1.7 0.00 0.00 0.00 90 1019.2
20260905102137 53 110 0.0 1.7 0.00 0.00 0.00 91 1019.2
20260905101636 53 98 0.0 0.9 0.00 0.00 0.00 91 1019.2
20260905101134 53 105 0.9 1.7 0.00 0.00 0.00 91 1019.2
20260905100630 53 113 0.0 0.0 0.00 0.00 0.00 91 1019.2
20260905100125 53 95 0.0 0.0 0.00 0.00 0.00 91 1019.2
20260905095619 53 97 0.0 0.0 0.00 0.00 0.00 91 1019.2
20260905095114 53 87 0.0 0.0 0.00 0.00 0.00 91 1019.2
20260905094610 53 106 0.0 0.0 0.00 0.00 0.00 91 1018.9
20260905094108 53 67 0.0 0.0 0.00 0.00 0.00 91 1019.2
20260905093603 53 67 0.0 0.0 0.00 0.00 0.00 91 1019.2
20260905093100 53 67 0.0 0.0 0.00 0.00 0.00 91 1019.2
20260905092559 53 67 0.0 0.0 0.00 0.00 0.00 91 1019.2
20260905092055 53 67 0.0 0.9 0.00 0.00 0.00 91 1019.2
20260905091554 53 69 0.0 0.9 0.00 0.00 0.00 91 1019.2
20260905091048 53 79 0.9 1.7 0.00 0.00 0.00 91 1019.2
20260905090543 53 104 0.0 0.9 0.00 0.00 0.00 91 1019.6
20260905090038 53 113 0.9 1.7 0.00 0.00 0.00 90 1019.2
20260905085536 53 107 0.0 0.0 0.00 0.00 0.00 90 1019.2
20260905085032 53 112 0.0 0.0 0.00 0.00 0.00 90 1019.2
20260905084531 53 103 0.0 0.0 0.00 0.00 0.00 90 1019.2
20260905084027 53 110 0.0 0.0 0.00 0.00 0.00 90 1019.2
20260905083516 53 109 0.0 0.0 0.00 0.00 0.00 90 1019.2
20260905083012 53 132 0.9 0.9 0.00 0.00 0.00 90 1019.2
20260905082502 53 115 0.0 0.0 0.00 0.00 0.00 89 1018.9
20260905081957 54 123 0.0 0.0 0.00 0.00 0.00 89 1018.9
20260905081452 54 121 0.0 0.0 0.00 0.00 0.00 89 1019.2
20260905080951 54 111 0.0 0.0 0.00 0.00 0.00 89 1018.9
20260905080446 54 293 0.0 0.9 0.00 0.00 0.00 88 1018.9
20260905075945 54 96 0.9 0.9 0.00 0.00 0.00 88 1018.9
20260905075440 55 283 0.0 0.9 0.00 0.00 0.00 88 1019.2
20260905074938 55 116 0.0 0.9 0.00 0.00 0.00 88 1019.2
20260905074434 54 102 0.0 0.0 0.00 0.00 0.00 88 1018.9
20260905073930 54 92 0.0 0.0 0.00 0.00 0.00 88 1018.9
20260905073424 55 111 0.0 0.9 0.00 0.00 0.00 88 1018.9
20260905072920 55 112 0.0 0.9 0.00 0.00 0.00 88 1018.9
20260905072415 55 95 0.0 0.0 0.00 0.00 0.00 88 1018.9
20260905071911 55 112 0.0 0.0 0.00 0.00 0.00 87 1018.9
20260905071407 55 109 0.0 0.0 0.00 0.00 0.00 87 1018.9
20260905070901 55 113 0.0 0.0 0.00 0.00 0.00 87 1019.2
20260905070357 55 112 0.0 0.0 0.00 0.00 0.00 87 1018.9
20260905065857 55 114 0.0 0.9 0.00 0.07 0.07 87 1018.9
20260905065355 55 128 0.0 0.0 0.00 0.07 0.07 87 1018.9
20260905064851 55 127 0.0 0.0 0.00 0.07 0.07 86 1018.9
20260905064346 55 137 0.0 0.0 0.00 0.07 0.07 86 1018.9
20260905063844 55 116 0.0 0.0 0.00 0.07 0.07 86 1018.9
20260905063340 55 108 0.0 0.0 0.00 0.07 0.07 86 1018.5
20260905062836 55 108 0.0 0.0 0.00 0.07 0.07 86 1018.5
20260905062331 55 123 0.0 0.0 0.00 0.07 0.07 85 1018.9
20260905061826 55 132 0.0 0.0 0.00 0.07 0.07 85 1018.5
20260905061326 55 132 0.0 0.0 0.00 0.07 0.07 85 1018.5
20260905060820 55 130 0.0 0.0 0.00 0.07 0.07 85 1018.5
20260905060317 56 132 0.0 0.0 0.00 0.07 0.07 85 1018.9
20260905055816 56 124 0.0 0.9 0.00 0.07 0.07 85 1018.9
20260905055311 56 130 0.0 0.0 0.00 0.07 0.07 84 1018.5
20260905054811 56 128 0.0 0.0 0.00 0.07 0.07 84 1018.5
20260905054308 56 129 0.0 0.0 0.00 0.07 0.07 84 1018.5
20260905053806 56 121 0.0 0.0 0.00 0.07 0.07 84 1018.9
20260905053301 56 121 0.0 0.0 0.00 0.07 0.07 84 1018.9
20260905052756 56 114 0.0 0.0 0.00 0.07 0.07 83 1018.5
20260905052250 56 114 0.0 0.0 0.00 0.07 0.07 83 1018.9
20260905051750 57 105 0.9 0.9 0.00 0.07 0.07 83 1018.5
20260905051247 57 104 0.0 0.9 0.00 0.07 0.07 83 1018.5
20260905050743 57 112 0.0 0.0 0.00 0.07 0.07 82 1018.5
20260905050240 57 80 0.0 1.7 0.00 0.07 0.07 82 1018.5
20260905045739 57 156 0.0 0.9 0.00 0.07 0.07 82 1018.5
20260905045235 57 151 0.0 0.9 0.00 0.07 0.07 82 1018.9
20260905044730 57 134 0.0 0.9 0.00 0.07 0.07 82 1018.9
20260905044225 57 112 0.0 0.0 0.00 0.07 0.07 82 1018.9
20260905043723 57 58 0.0 0.0 0.00 0.07 0.07 82 1018.9
20260905043218 57 99 0.0 0.0 0.00 0.07 0.07 81 1018.5
20260905042713 57 111 0.0 0.0 0.00 0.07 0.07 81 1018.9
20260905042212 57 112 0.0 0.0 0.00 0.07 0.07 81 1019.2
20260905041708 57 140 0.0 0.0 0.00 0.07 0.07 81 1018.9
20260905041203 58 127 0.0 0.0 0.00 0.07 0.07 80 1018.9
20260905040658 58 127 0.0 0.0 0.00 0.07 0.07 80 1018.9
20260905040156 58 123 0.0 0.0 0.00 0.07 0.07 79 1018.9
20260905035651 58 123 0.0 0.0 0.00 0.07 0.07 79 1018.9
20260905035148 58 120 0.0 0.0 0.00 0.07 0.07 78 1018.9
20260905034643 58 120 0.0 0.0 0.00 0.07 0.07 78 1018.9
20260905034143 58 128 0.0 0.0 0.00 0.07 0.07 78 1018.5
20260905033642 58 125 0.0 0.0 0.00 0.07 0.07 78 1018.5
20260905033138 59 124 0.0 0.0 0.00 0.07 0.07 78 1018.5
20260905032637 59 124 0.0 0.0 0.00 0.07 0.07 77 1018.5
20260905032132 59 124 0.0 0.0 0.00 0.07 0.07 77 1018.9
20260905031628 59 124 0.0 0.0 0.00 0.07 0.07 76 1018.5
20260905031123 60 124 0.0 0.0 0.00 0.07 0.07 76 1018.5
20260905030618 60 124 0.0 0.0 0.00 0.07 0.07 76 1018.5
20260905030114 60 124 0.0 0.0 0.00 0.07 0.07 75 1018.5
20260905025608 61 124 0.0 0.0 0.00 0.07 0.07 73 1018.5
20260905025104 61 124 0.0 0.0 0.00 0.07 0.07 73 1018.5
20260905024600 61 132 0.0 0.0 0.00 0.07 0.07 73 1018.2
20260905024055 62 136 0.0 0.0 0.00 0.07 0.07 73 1018.2
20260905023549 62 136 0.0 0.0 0.00 0.07 0.07 72 1018.2
20260905023044 62 125 0.0 0.9 0.00 0.07 0.07 71 1018.5
20260905022544 62 108 0.0 0.9 0.00 0.07 0.07 71 1018.2
20260905022039 63 100 0.0 0.9 0.00 0.07 0.07 70 1018.2
20260905021538 63 70 0.0 1.7 0.00 0.07 0.07 70 1018.2
20260905021034 64 91 0.0 0.9 0.00 0.07 0.07 69 1018.2
20260905020533 64 120 0.0 0.0 0.00 0.07 0.07 69 1017.9
20260905020029 64 129 0.0 1.7 0.00 0.07 0.07 69 1017.9
20260905015526 65 101 0.0 1.7 0.00 0.07 0.07 67 1018.2
20260905015021 65 91 0.9 1.7 0.00 0.07 0.07 68 1017.9
20260905014516 65 144 0.0 0.0 0.00 0.07 0.07 68 1017.9
20260905014012 64 189 0.0 0.0 0.00 0.07 0.07 68 1017.9
20260905013508 65 101 0.0 0.0 0.00 0.07 0.07 67 1017.9
20260905013004 65 61 0.0 0.9 0.00 0.07 0.07 67 1017.9
20260905012458 65 322 1.7 2.6 0.00 0.07 0.07 67 1017.9
20260905011955 66 177 0.0 1.7 0.00 0.07 0.07 66 1017.9
20260905011450 66 94 0.9 0.9 0.00 0.07 0.07 65 1017.9
20260905010946 66 101 0.0 0.9 0.00 0.07 0.07 65 1017.9
20260905010441 68 99 0.0 0.9 0.00 0.07 0.07 63 1017.9
20260905005937 68 121 0.0 0.9 0.00 0.07 0.07 62 1017.5
20260905005432 67 101 0.0 0.9 0.00 0.07 0.07 64 1017.5
20260905004933 66 117 0.9 1.7 0.00 0.07 0.07 66 1017.5
20260905004427 65 269 0.9 1.7 0.00 0.07 0.07 66 1017.5
20260905003922 65 257 1.7 3.5 0.00 0.07 0.07 67 1017.5
20260905003419 65 51 0.9 2.6 0.00 0.07 0.07 67 1017.5
20260905002914 64 61 1.7 2.6 0.00 0.07 0.07 69 1017.2
20260905002413 65 119 0.0 1.7 0.00 0.07 0.07 68 1017.2
20260905001908 65 96 0.0 0.9 0.00 0.07 0.07 66 1017.2
20260905001403 65 89 0.0 0.9 0.00 0.07 0.07 67 1017.2
20260905000857 66 359 2.6 5.2 0.00 0.07 0.07 65 1017.2
20260905000355 67 0 1.7 1.7 0.00 0.07 0.07 61 1017.2
20260904235849 67 88 0.0 2.6 0.00 0.07 0.07 60 1017.2
20260904235344 68 80 0.9 2.6 0.00 0.07 0.07 58 1017.2
20260904234844 68 355 2.6 3.5 0.00 0.07 0.07 58 1016.9
20260904234339 69 29 2.6 2.6 0.00 0.07 0.07 55 1016.9
20260904233835 69 9 1.7 2.6 0.00 0.07 0.07 56 1017.2
20260904233330 69 65 1.7 2.6 0.00 0.07 0.07 57 1017.2
20260904232827 69 355 1.7 2.6 0.00 0.07 0.07 59 1016.9
20260904232323 68 353 1.7 1.7 0.00 0.07 0.07 61 1016.9
20260904231819 70 357 1.7 5.2 0.00 0.07 0.07 61 1016.9
20260904231313 69 104 0.0 0.9 0.00 0.07 0.07 59 1016.9
20260904230808 69 146 0.0 2.6 0.00 0.07 0.07 61 1016.9
20260904230306 67 122 0.0 1.7 0.00 0.07 0.07 65 1016.9
20260904225802 67 302 0.9 3.5 0.00 0.07 0.07 64 1016.9
20260904225255 67 53 1.7 3.5 0.00 0.07 0.07 65 1016.9
20260904224754 67 14 0.9 1.7 0.00 0.07 0.07 65 1016.9
20260904224250 67 2 1.7 3.5 0.00 0.07 0.07 65 1016.5
20260904223749 67 357 1.7 3.5 0.00 0.07 0.07 65 1016.9
20260904223244 67 208 0.9 2.6 0.00 0.07 0.07 65 1016.9
20260904222741 67 19 2.6 3.5 0.00 0.07 0.07 64 1016.9
20260904222235 67 16 1.7 6.1 0.00 0.07 0.07 62 1016.9
20260904221735 68 350 0.9 3.5 0.00 0.07 0.07 62 1016.9
20260904221230 67 147 1.7 1.7 0.00 0.07 0.07 62 1016.5
20260904220725 67 44 1.7 2.6 0.00 0.07 0.07 63 1016.5
20260904220220 67 25 0.9 2.6 0.00 0.07 0.07 62 1016.9
20260904215720 68 24 1.7 2.6 0.00 0.07 0.07 61 1016.5
20260904215215 68 51 0.9 2.6 0.00 0.07 0.07 62 1016.9
20260904214710 67 20 2.6 5.2 0.00 0.07 0.07 61 1016.5
20260904214206 67 67 2.6 3.5 0.00 0.07 0.07 63 1016.9
20260904213704 66 71 1.7 3.5 0.00 0.07 0.07 63 1016.9
20260904213200 66 9 2.6 5.2 0.00 0.07 0.07 65 1016.5
20260904212655 67 148 1.7 3.5 0.00 0.07 0.07 62 1016.9
20260904212149 66 55 0.9 3.5 0.00 0.07 0.07 63 1016.9
20260904211644 67 39 1.7 3.5 0.00 0.07 0.07 62 1016.9
20260904211140 68 52 1.7 3.5 0.00 0.07 0.07 61 1016.9
20260904210639 68 76 0.9 5.2 0.00 0.07 0.07 62 1016.9
20260904210135 68 258 2.6 5.2 0.00 0.07 0.07 61 1016.5
20260904205631 67 139 0.9 1.7 0.00 0.07 0.07 64 1016.5
20260904205127 66 186 1.7 2.6 0.00 0.07 0.07 66 1016.5
20260904204623 66 90 0.9 1.7 0.00 0.07 0.07 66 1016.5
20260904204119 66 120 0.9 2.6 0.00 0.07 0.07 68 1016.5
20260904203614 66 88 1.7 5.2 0.00 0.07 0.07 68 1016.5
20260904203111 67 89 0.9 2.6 0.00 0.07 0.07 66 1016.5
20260904202606 66 238 0.9 2.6 0.00 0.07 0.07 69 1016.5
20260904202102 65 61 0.9 0.9 0.00 0.07 0.07 69 1016.2
20260904201556 64 101 0.9 2.6 0.00 0.07 0.07 71 1016.5
20260904201052 63 44 2.6 5.2 0.00 0.07 0.07 72 1016.5
20260904200550 63 51 1.7 5.2 0.00 0.07 0.07 73 1016.2